Location: Notre Dame Regional High School Observatory
(37.3056°N, 89.6097°W)
Time: 05:19:40
(UTC-05:00)

Okean-O - Visible Passes

Search period start: 30 June 2016 00:00
Search period end: 10 July 2016 00:00
Orbit: 640 x 642 km, 98.1° (Epoch: 29 June)

Date Brightness Start Highest point End Pass type
(mag) Time Alt. Az. Time Alt. Az. Time Alt. Az.
01 Jul 5.2 04:07:45 10° NE 04:10:28 16° E 04:13:11 10° SE visible
02 Jul 4.5 04:30:26 10° NE 04:34:18 29° E 04:38:07 10° SSE visible
03 Jul 3.4 04:53:41 10° NNE 04:58:02 53° E 05:02:21 10° S visible
05 Jul 5.3 04:06:03 10° ENE 04:08:36 15° E 04:11:09 10° SE visible
06 Jul 4.6 04:28:39 10° NE 04:32:26 27° E 04:36:11 10° SSE visible
07 Jul 3.5 04:51:51 10° NNE 04:56:11 50° E 05:00:29 10° S visible
08 Jul 2.7 05:15:23 10° NNE 05:19:51 86° WNW 05:24:17 10° SSW visible
09 Jul 5.3 04:04:22 10° ENE 04:06:44 14° E 04:09:05 10° SE visible
